| time (UTC) | temp F | wind direction | speed MPH | gust MPH | rain 1hr in | rain 24hr in | rain mn in | humidity % | barometer mb |
| 20260506131911 | 81 | 202 | 2.0 | 0.0 | 0.00 | 0.00 | 0.09 | 30 | 1003.3 |
| 20260506131410 | 80 | 180 | 6.0 | 0.0 | 0.00 | 0.00 | 0.09 | 30 | 1003.3 |
| 20260506130909 | 79 | 202 | 4.0 | 0.0 | 0.00 | 0.00 | 0.09 | 30 | 1003.4 |
| 20260506130408 | 79 | 202 | 4.0 | 0.0 | 0.00 | 0.00 | 0.09 | 30 | 1003.5 |
| 20260506125908 | 79 | 225 | 1.0 | 0.0 | 0.00 | 0.00 | 0.09 | 31 | 1003.5 |
| 20260506125407 | 79 | 225 | 6.0 | 0.0 | 0.00 | 0.00 | 0.09 | 31 | 1003.5 |
| 20260506124905 | 78 | 202 | 6.0 | 0.0 | 0.00 | 0.00 | 0.09 | 30 | 1003.7 |
| 20260506124405 | 78 | 225 | 4.0 | 0.0 | 0.00 | 0.00 | 0.09 | 30 | 1003.6 |
| 20260506123904 | 78 | 202 | 3.0 | 0.0 | 0.00 | 0.00 | 0.09 | 30 | 1003.4 |
| 20260506123403 | 79 | 225 | 9.0 | 0.0 | 0.00 | 0.00 | 0.09 | 31 | 1003.3 |
| 20260506122352 | 79 | 202 | 7.0 | 0.0 | 0.00 | 0.00 | 0.09 | 31 | 1003.5 |
| 20260506121851 | 80 | 67 | 0.0 | 0.0 | 0.00 | 0.00 | 0.09 | 34 | 1003.6 |
| 20260506120850 | 82 | 67 | 0.0 | 0.0 | 0.00 | 0.00 | 0.09 | 35 | 1003.8 |
| 20260506120349 | 81 | 67 | 0.0 | 0.0 | 0.00 | 0.00 | 0.09 | 35 | 1003.9 |
| 20260506115848 | 81 | 67 | 0.0 | 0.0 | 0.00 | 0.00 | 0.09 | 35 | 1003.9 |
| 20260506115347 | 80 | 67 | 0.0 | 0.0 | 0.00 | 0.00 | 0.09 | 37 | 1003.9 |
| 20260506114438 | 79 | 67 | 0.0 | 0.0 | 0.00 | 0.00 | 0.09 | 37 | 1004.0 |
| 20260506113937 | 78 | 67 | 0.0 | 0.0 | 0.00 | 0.00 | 0.09 | 40 | 1004.1 |
| 20260506113436 | 77 | 67 | 0.0 | 0.0 | 0.00 | 0.00 | 0.09 | 39 | 1004.1 |
| 20260506112935 | 76 | 67 | 0.0 | 0.0 | 0.00 | 0.00 | 0.09 | 40 | 1004.3 |
| 20260506112238 | 76 | 67 | 0.0 | 0.0 | 0.00 | 0.00 | 0.09 | 40 | 1004.5 |
| 20260506111737 | 76 | 67 | 3.0 | 0.0 | 0.00 | 0.00 | 0.09 | 40 | 1004.5 |
| 20260506111237 | 76 | 67 | 2.0 | 0.0 | 0.00 | 0.00 | 0.09 | 42 | 1004.6 |
| 20260506110736 | 75 | 67 | 0.0 | 0.0 | 0.00 | 0.00 | 0.09 | 44 | 1004.7 |
| 20260506110235 | 75 | 67 | 0.0 | 0.0 | 0.00 | 0.00 | 0.09 | 44 | 1004.7 |
| 20260506105734 | 75 | 67 | 0.0 | 0.0 | 0.00 | 0.00 | 0.09 | 44 | 1004.8 |
| 20260506105234 | 76 | 67 | 0.0 | 0.0 | 0.00 | 0.00 | 0.09 | 45 | 1004.8 |
| 20260506104404 | 76 | 67 | 0.0 | 0.0 | 0.00 | 0.00 | 0.09 | 45 | 1004.8 |
| 20260506103904 | 75 | 67 | 0.0 | 0.0 | 0.00 | 0.00 | 0.09 | 46 | 1005.0 |
| 20260506103402 | 75 | 67 | 0.0 | 0.0 | 0.00 | 0.00 | 0.09 | 46 | 1005.0 |
| 20260506102902 | 74 | 67 | 5.0 | 0.0 | 0.00 | 0.00 | 0.09 | 48 | 1005.1 |
| 20260506102117 | 74 | 45 | 0.0 | 0.0 | 0.00 | 0.00 | 0.09 | 48 | 1005.2 |
| 20260506101616 | 74 | 45 | 0.0 | 0.0 | 0.00 | 0.00 | 0.09 | 50 | 1005.3 |
| 20260506101115 | 73 | 45 | 0.0 | 0.0 | 0.00 | 0.00 | 0.09 | 51 | 1005.3 |
| 20260506100614 | 71 | 45 | 0.0 | 0.0 | 0.00 | 0.00 | 0.09 | 52 | 1005.4 |
| 20260506100113 | 71 | 45 | 0.0 | 0.0 | 0.00 | 0.00 | 0.09 | 52 | 1005.5 |
| 20260506095612 | 71 | 45 | 0.0 | 0.0 | 0.00 | 0.00 | 0.09 | 52 | 1005.5 |
| 20260506095112 | 72 | 45 | 0.0 | 0.0 | 0.00 | 0.00 | 0.09 | 54 | 1005.5 |
| 20260506094521 | 73 | 45 | 0.0 | 0.0 | 0.00 | 0.00 | 0.09 | 53 | 1005.5 |
| 20260506094020 | 73 | 45 | 0.0 | 0.0 | 0.00 | 0.00 | 0.09 | 53 | 1005.6 |
| 20260506093519 | 73 | 45 | 0.0 | 0.0 | 0.00 | 0.00 | 0.09 | 54 | 1005.6 |
| 20260506093018 | 70 | 45 | 0.0 | 0.0 | 0.00 | 0.00 | 0.09 | 57 | 1005.5 |
| 20260506091951 | 70 | 45 | 0.0 | 0.0 | 0.00 | 0.00 | 0.09 | 58 | 1005.7 |
| 20260506091450 | 70 | 45 | 0.0 | 0.0 | 0.00 | 0.00 | 0.09 | 57 | 1005.7 |
| 20260506090949 | 70 | 45 | 0.0 | 0.0 | 0.00 | 0.00 | 0.09 | 58 | 1005.8 |
| 20260506090448 | 68 | 45 | 0.0 | 0.0 | 0.00 | 0.00 | 0.09 | 60 | 1005.8 |
| 20260506085947 | 68 | 45 | 0.0 | 0.0 | 0.00 | 0.00 | 0.09 | 60 | 1005.8 |
| 20260506085447 | 68 | 45 | 0.0 | 0.0 | 0.00 | 0.00 | 0.09 | 61 | 1005.7 |
| 20260506084946 | 68 | 45 | 0.0 | 0.0 | 0.00 | 0.00 | 0.09 | 60 | 1005.8 |
| 20260506084445 | 67 | 45 | 0.0 | 0.0 | 0.00 | 0.00 | 0.09 | 64 | 1005.9 |
| 20260506083944 | 66 | 45 | 0.0 | 0.0 | 0.00 | 0.00 | 0.09 | 64 | 1005.9 |
| 20260506083443 | 66 | 45 | 0.0 | 0.0 | 0.00 | 0.00 | 0.09 | 64 | 1005.9 |
| 20260506082942 | 65 | 45 | 0.0 | 0.0 | 0.00 | 0.00 | 0.09 | 64 | 1006.0 |
| 20260506082441 | 65 | 45 | 0.0 | 0.0 | 0.00 | 0.00 | 0.09 | 66 | 1005.9 |
| 20260506081940 | 65 | 45 | 0.0 | 0.0 | 0.00 | 0.00 | 0.09 | 66 | 1005.9 |
| 20260506081439 | 64 | 45 | 0.0 | 0.0 | 0.00 | 0.00 | 0.09 | 66 | 1005.9 |
| 20260506080939 | 62 | 45 | 0.0 | 0.0 | 0.00 | 0.00 | 0.09 | 69 | 1005.9 |
| 20260506073355 | 60 | 45 | 0.0 | 0.0 | 0.00 | 0.00 | 0.09 | 73 | 1006.0 |
| 20260506072855 | 59 | 45 | 0.0 | 0.0 | 0.00 | 0.00 | 0.09 | 74 | 1006.1 |
| 20260506071824 | 59 | 45 | 3.0 | 0.0 | 0.00 | 0.00 | 0.09 | 75 | 1006.2 |
| 20260506071322 | 59 | 45 | 0.0 | 0.0 | 0.00 | 0.00 | 0.09 | 75 | 1006.3 |
| 20260506070822 | 59 | 45 | 2.0 | 0.0 | 0.00 | 0.00 | 0.09 | 75 | 1006.3 |
| 20260506070321 | 59 | 45 | 0.0 | 0.0 | 0.00 | 0.00 | 0.09 | 76 | 1006.4 |
| 20260506062210 | 55 | 45 | 0.0 | 0.0 | 0.00 | 0.00 | 0.09 | 81 | 1006.6 |
| 20260506061709 | 54 | 45 | 0.0 | 0.0 | 0.00 | 0.00 | 0.09 | 81 | 1006.6 |
| 20260506061208 | 54 | 45 | 0.0 | 0.0 | 0.00 | 0.00 | 0.09 | 81 | 1006.5 |
| 20260506060707 | 54 | 45 | 0.0 | 0.0 | 0.00 | 0.00 | 0.09 | 81 | 1006.6 |
| 20260506051208 | 52 | 45 | 0.0 | 0.0 | 0.00 | 0.00 | 0.09 | 82 | 1006.6 |
| 20260506050707 | 52 | 45 | 0.0 | 0.0 | 0.00 | 0.00 | 0.09 | 81 | 1006.7 |
| 20260506050205 | 52 | 45 | 0.0 | 0.0 | 0.00 | 0.00 | 0.09 | 81 | 1006.9 |
| 20260506045006 | 52 | 45 | 0.0 | 0.0 | 0.00 | 0.00 | 0.09 | 81 | 1006.8 |
| 20260506044505 | 52 | 45 | 0.0 | 0.0 | 0.00 | 0.00 | 0.09 | 81 | 1006.6 |
| 20260506044004 | 52 | 45 | 0.0 | 0.0 | 0.00 | 0.00 | 0.09 | 81 | 1006.7 |
| 20260506043503 | 52 | 45 | 0.0 | 0.0 | 0.00 | 0.00 | 0.09 | 81 | 1006.7 |
| 20260506043002 | 52 | 45 | 1.0 | 0.0 | 0.00 | 0.00 | 0.09 | 82 | 1006.7 |
| 20260506042502 | 51 | 45 | 0.0 | 0.0 | 0.00 | 0.00 | 0.09 | 82 | 1006.8 |
| 20260506041923 | 51 | 45 | 0.0 | 0.0 | 0.00 | 0.00 | 0.09 | 83 | 1006.9 |
| 20260506041422 | 51 | 45 | 0.0 | 0.0 | 0.00 | 0.00 | 0.09 | 83 | 1007.1 |
| 20260506040921 | 51 | 45 | 0.0 | 0.0 | 0.00 | 0.00 | 0.09 | 84 | 1007.1 |
| 20260506040420 | 50 | 45 | 0.0 | 0.0 | 0.00 | 0.00 | 0.09 | 84 | 1007.1 |
| 20260506035407 | 50 | 45 | 0.0 | 0.0 | 0.00 | 0.00 | 0.09 | 84 | 1007.0 |
| 20260506034906 | 50 | 45 | 2.0 | 0.0 | 0.00 | 0.00 | 0.09 | 84 | 1006.9 |
| 20260506034405 | 50 | 45 | 0.0 | 0.0 | 0.00 | 0.00 | 0.09 | 84 | 1006.8 |
| 20260506033904 | 50 | 45 | 0.0 | 0.0 | 0.00 | 0.00 | 0.09 | 84 | 1006.9 |
| 20260506033403 | 50 | 45 | 0.0 | 0.0 | 0.00 | 0.00 | 0.09 | 84 | 1007.0 |
| 20260506032402 | 50 | 45 | 0.0 | 0.0 | 0.00 | 0.00 | 0.09 | 84 | 1007.1 |
| 20260506031335 | 50 | 45 | 0.0 | 0.0 | 0.00 | 0.00 | 0.09 | 84 | 1007.1 |
| 20260506030834 | 50 | 45 | 0.0 | 0.0 | 0.00 | 0.00 | 0.09 | 84 | 1006.8 |
| 20260506030333 | 50 | 45 | 0.0 | 0.0 | 0.00 | 0.00 | 0.09 | 84 | 1006.8 |
| 20260506025832 | 50 | 45 | 0.0 | 0.0 | 0.00 | 0.00 | 0.09 | 84 | 1006.8 |
| 20260506025331 | 50 | 45 | 0.0 | 0.0 | 0.00 | 0.00 | 0.09 | 84 | 1006.8 |
| 20260506024830 | 50 | 45 | 0.0 | 0.0 | 0.00 | 0.00 | 0.09 | 84 | 1006.7 |
| 20260506024329 | 50 | 45 | 0.0 | 0.0 | 0.00 | 0.00 | 0.09 | 84 | 1006.6 |
| 20260506023828 | 50 | 45 | 0.0 | 0.0 | 0.00 | 0.00 | 0.09 | 84 | 1006.6 |
| 20260506023328 | 50 | 45 | 0.0 | 0.0 | 0.00 | 0.00 | 0.09 | 84 | 1006.6 |
| 20260506022827 | 50 | 45 | 0.0 | 0.0 | 0.00 | 0.00 | 0.09 | 83 | 1006.6 |
| 20260506022326 | 51 | 45 | 0.0 | 0.0 | 0.00 | 0.00 | 0.09 | 83 | 1006.7 |
| 20260506021531 | 51 | 45 | 0.0 | 0.0 | 0.00 | 0.00 | 0.09 | 83 | 1006.7 |
| 20260506021030 | 51 | 45 | 0.0 | 0.0 | 0.00 | 0.00 | 0.09 | 83 | 1006.7 |
| 20260506020529 | 51 | 45 | 0.0 | 0.0 | 0.00 | 0.00 | 0.09 | 83 | 1006.8 |
| 20260506020029 | 51 | 45 | 0.0 | 0.0 | 0.00 | 0.00 | 0.09 | 83 | 1006.9 |
| 20260506015528 | 51 | 45 | 0.0 | 0.0 | 0.00 | 0.00 | 0.09 | 84 | 1006.7 |
| 20260506014855 | 51 | 45 | 0.0 | 0.0 | 0.00 | 0.00 | 0.09 | 84 | 1006.9 |
| 20260506014354 | 52 | 45 | 1.0 | 0.0 | 0.00 | 0.00 | 0.09 | 84 | 1006.8 |
| 20260506013853 | 52 | 45 | 0.0 | 0.0 | 0.00 | 0.00 | 0.09 | 85 | 1006.8 |
| 20260506013352 | 52 | 45 | 0.0 | 0.0 | 0.00 | 0.00 | 0.09 | 86 | 1006.7 |
| 20260506012419 | 52 | 45 | 0.0 | 0.0 | 0.00 | 0.00 | 0.09 | 86 | 1006.6 |
| 20260506011918 | 52 | 45 | 0.0 | 0.0 | 0.00 | 0.00 | 0.09 | 86 | 1006.7 |
| 20260506011417 | 52 | 45 | 0.0 | 0.0 | 0.00 | 0.00 | 0.09 | 86 | 1006.7 |
| 20260506010916 | 52 | 45 | 0.0 | 0.0 | 0.00 | 0.00 | 0.09 | 86 | 1006.7 |
| 20260506010416 | 52 | 45 | 0.0 | 0.0 | 0.00 | 0.00 | 0.09 | 86 | 1006.8 |
| 20260506005915 | 52 | 45 | 0.0 | 0.0 | 0.00 | 0.00 | 0.09 | 86 | 1006.7 |
| 20260506005414 | 53 | 45 | 0.0 | 0.0 | 0.00 | 0.00 | 0.09 | 86 | 1006.6 |
| 20260506004821 | 53 | 45 | 0.0 | 0.0 | 0.00 | 0.00 | 0.09 | 87 | 1006.6 |
| 20260506004320 | 53 | 45 | 0.0 | 0.0 | 0.00 | 0.00 | 0.09 | 87 | 1006.6 |
| 20260506003819 | 53 | 45 | 0.0 | 0.0 | 0.00 | 0.00 | 0.09 | 87 | 1006.6 |
| 20260506003318 | 53 | 45 | 0.0 | 0.0 | 0.00 | 0.00 | 0.09 | 87 | 1006.6 |
| 20260506002423 | 53 | 45 | 0.0 | 0.0 | 0.00 | 0.00 | 0.09 | 86 | 1006.4 |
| 20260506001922 | 53 | 45 | 0.0 | 0.0 | 0.00 | 0.00 | 0.09 | 87 | 1006.5 |
| 20260506001422 | 53 | 45 | 0.0 | 0.0 | 0.00 | 0.00 | 0.09 | 87 | 1006.5 |
| 20260506000921 | 54 | 45 | 0.0 | 0.0 | 0.00 | 0.00 | 0.09 | 87 | 1006.5 |
| 20260506000342 | 54 | 45 | 0.0 | 0.0 | 0.00 | 0.00 | 0.09 | 87 | 1006.5 |
| 20260505235841 | 54 | 45 | 0.0 | 0.0 | 0.00 | 0.00 | 0.09 | 87 | 1006.5 |
| 20260505235340 | 54 | 45 | 0.0 | 0.0 | 0.00 | 0.00 | 0.09 | 87 | 1006.5 |
| 20260505234839 | 55 | 45 | 3.0 | 0.0 | 0.00 | 0.00 | 0.09 | 88 | 1006.4 |
| 20260505234339 | 55 | 45 | 0.0 | 0.0 | 0.00 | 0.00 | 0.09 | 88 | 1006.4 |
| 20260505233838 | 55 | 45 | 0.0 | 0.0 | 0.00 | 0.00 | 0.09 | 88 | 1006.4 |
| 20260505233336 | 55 | 45 | 0.0 | 0.0 | 0.00 | 0.00 | 0.09 | 88 | 1006.5 |
| 20260505232835 | 55 | 45 | 0.0 | 0.0 | 0.00 | 0.00 | 0.09 | 88 | 1006.4 |
| 20260505232335 | 55 | 45 | 0.0 | 0.0 | 0.00 | 0.00 | 0.09 | 88 | 1006.4 |
| 20260505231834 | 55 | 45 | 0.0 | 0.0 | 0.00 | 0.00 | 0.09 | 88 | 1006.3 |
| 20260505231333 | 55 | 45 | 0.0 | 0.0 | 0.00 | 0.00 | 0.09 | 88 | 1006.4 |
| 20260505230240 | 55 | 45 | 0.0 | 0.0 | 0.00 | 0.00 | 0.09 | 88 | 1006.6 |
| 20260505225739 | 55 | 45 | 0.0 | 0.0 | 0.00 | 0.00 | 0.09 | 88 | 1006.5 |
| 20260505225238 | 55 | 45 | 0.0 | 0.0 | 0.00 | 0.00 | 0.09 | 88 | 1006.7 |
| 20260505224738 | 56 | 45 | 0.0 | 0.0 | 0.00 | 0.00 | 0.09 | 87 | 1006.7 |
| 20260505224237 | 56 | 45 | 0.0 | 0.0 | 0.00 | 0.00 | 0.09 | 87 | 1006.8 |
| 20260505223736 | 56 | 45 | 0.0 | 0.0 | 0.00 | 0.00 | 0.09 | 87 | 1006.9 |
| 20260505223235 | 56 | 45 | 0.0 | 0.0 | 0.00 | 0.00 | 0.09 | 87 | 1006.9 |
| 20260505222734 | 56 | 45 | 0.0 | 0.0 | 0.00 | 0.00 | 0.09 | 87 | 1006.9 |
| 20260505222233 | 56 | 45 | 0.0 | 0.0 | 0.00 | 0.00 | 0.09 | 87 | 1006.9 |
| 20260505221732 | 56 | 45 | 0.0 | 0.0 | 0.00 | 0.00 | 0.09 | 87 | 1007.1 |
| 20260505221231 | 56 | 45 | 0.0 | 0.0 | 0.00 | 0.00 | 0.09 | 87 | 1007.2 |
| 20260505220158 | 56 | 45 | 0.0 | 0.0 | 0.00 | 0.00 | 0.09 | 87 | 1007.2 |
| 20260505215658 | 56 | 45 | 0.0 | 0.0 | 0.00 | 0.00 | 0.09 | 87 | 1007.3 |
| 20260505215157 | 56 | 45 | 0.0 | 0.0 | 0.00 | 0.00 | 0.09 | 87 | 1007.2 |
| 20260505214656 | 57 | 45 | 0.0 | 0.0 | 0.00 | 0.00 | 0.09 | 87 | 1007.1 |
| 20260505214155 | 57 | 45 | 0.0 | 0.0 | 0.00 | 0.00 | 0.09 | 87 | 1007.1 |
| 20260505213654 | 57 | 45 | 0.0 | 0.0 | 0.00 | 0.00 | 0.09 | 87 | 1007.1 |
| 20260505213153 | 57 | 45 | 0.0 | 0.0 | 0.00 | 0.00 | 0.09 | 87 | 1007.2 |
| 20260505212632 | 57 | 45 | 0.0 | 0.0 | 0.00 | 0.00 | 0.09 | 87 | 1007.1 |
| 20260505212131 | 57 | 45 | 0.0 | 0.0 | 0.00 | 0.00 | 0.09 | 87 | 1007.1 |
| 20260505211630 | 57 | 45 | 0.0 | 0.0 | 0.00 | 0.00 | 0.09 | 86 | 1007.0 |
| 20260505211130 | 57 | 45 | 0.0 | 0.0 | 0.00 | 0.00 | 0.09 | 86 | 1007.1 |
| 20260505210131 | 57 | 45 | 0.0 | 0.0 | 0.00 | 0.00 | 0.09 | 86 | 1007.1 |
| 20260505205630 | 57 | 45 | 0.0 | 0.0 | 0.00 | 0.00 | 0.09 | 86 | 1007.2 |
| 20260505205129 | 57 | 45 | 0.0 | 0.0 | 0.00 | 0.00 | 0.09 | 86 | 1007.0 |
| 20260505204628 | 57 | 45 | 0.0 | 0.0 | 0.00 | 0.00 | 0.09 | 85 | 1007.1 |
| 20260505204127 | 57 | 45 | 0.0 | 0.0 | 0.00 | 0.00 | 0.09 | 85 | 1007.1 |
| 20260505203626 | 57 | 45 | 0.0 | 0.0 | 0.00 | 0.00 | 0.09 | 85 | 1007.1 |
| 20260505203126 | 57 | 45 | 0.0 | 0.0 | 0.00 | 0.00 | 0.09 | 84 | 1007.2 |
| 20260505202531 | 57 | 45 | 0.0 | 0.0 | 0.00 | 0.00 | 0.09 | 84 | 1007.2 |
| 20260505202030 | 57 | 45 | 0.0 | 0.0 | 0.00 | 0.00 | 0.09 | 84 | 1007.2 |
| 20260505201529 | 57 | 45 | 0.0 | 0.0 | 0.00 | 0.00 | 0.09 | 84 | 1007.2 |
| 20260505201028 | 58 | 45 | 0.0 | 0.0 | 0.00 | 0.00 | 0.09 | 83 | 1007.2 |
| 20260505195957 | 58 | 45 | 0.0 | 0.0 | 0.00 | 0.00 | 0.09 | 84 | 1007.1 |
| 20260505195456 | 58 | 45 | 0.0 | 0.0 | 0.00 | 0.00 | 0.09 | 83 | 1007.0 |
| 20260505194955 | 58 | 45 | 0.0 | 0.0 | 0.00 | 0.00 | 0.09 | 84 | 1007.0 |
| 20260505194647 | 58 | 45 | 0.0 | 0.0 | 0.00 | 0.00 | 0.09 | 84 | 1006.9 |
| 20260505194454 | 58 | 45 | 0.0 | 0.0 | 0.00 | 0.00 | 0.09 | 84 | 1006.9 |
| 20260505193954 | 58 | 45 | 0.0 | 0.0 | 0.00 | 0.00 | 0.09 | 84 | 1006.9 |
| 20260505193453 | 58 | 45 | 0.0 | 0.0 | 0.00 | 0.00 | 0.09 | 84 | 1006.8 |
| 20260505192411 | 59 | 45 | 0.0 | 0.0 | 0.00 | 0.00 | 0.09 | 84 | 1006.8 |
| 20260505191910 | 59 | 45 | 0.0 | 0.0 | 0.00 | 0.00 | 0.09 | 84 | 1006.8 |
| 20260505191410 | 59 | 45 | 0.0 | 0.0 | 0.00 | 0.00 | 0.09 | 84 | 1006.9 |
| 20260505190908 | 59 | 45 | 0.0 | 0.0 | 0.00 | 0.00 | 0.09 | 84 | 1006.8 |
| 20260505190407 | 59 | 45 | 0.0 | 0.0 | 0.00 | 0.00 | 0.09 | 83 | 1006.8 |
| 20260505185906 | 59 | 45 | 0.0 | 0.0 | 0.00 | 0.00 | 0.09 | 83 | 1006.8 |
| 20260505185405 | 59 | 45 | 0.0 | 0.0 | 0.00 | 0.00 | 0.09 | 83 | 1006.9 |
| 20260505184905 | 60 | 45 | 0.0 | 0.0 | 0.00 | 0.00 | 0.09 | 82 | 1006.7 |
| 20260505183842 | 60 | 45 | 0.0 | 0.0 | 0.00 | 0.00 | 0.09 | 82 | 1006.7 |
| 20260505183341 | 60 | 45 | 0.0 | 0.0 | 0.00 | 0.00 | 0.09 | 82 | 1006.7 |
| 20260505182840 | 60 | 45 | 0.0 | 0.0 | 0.00 | 0.00 | 0.09 | 82 | 1006.6 |
| 20260505182339 | 60 | 45 | 0.0 | 0.0 | 0.00 | 0.00 | 0.09 | 82 | 1006.7 |
| 20260505181838 | 61 | 45 | 0.0 | 0.0 | 0.00 | 0.00 | 0.09 | 82 | 1006.6 |
| 20260505181338 | 61 | 45 | 0.0 | 0.0 | 0.00 | 0.00 | 0.09 | 81 | 1006.6 |
| 20260505180837 | 61 | 45 | 0.0 | 0.0 | 0.00 | 0.00 | 0.09 | 81 | 1006.6 |
| 20260505180335 | 61 | 45 | 0.0 | 0.0 | 0.00 | 0.00 | 0.09 | 81 | 1006.7 |
| 20260505175835 | 61 | 45 | 0.0 | 0.0 | 0.00 | 0.00 | 0.09 | 81 | 1006.7 |
| 20260505175334 | 61 | 45 | 0.0 | 0.0 | 0.00 | 0.00 | 0.09 | 81 | 1006.6 |
| 20260505174833 | 61 | 45 | 0.0 | 0.0 | 0.00 | 0.00 | 0.09 | 80 | 1006.6 |
| 20260505174332 | 62 | 45 | 0.0 | 0.0 | 0.00 | 0.00 | 0.09 | 80 | 1006.4 |
| 20260505173831 | 62 | 45 | 0.0 | 0.0 | 0.00 | 0.00 | 0.09 | 80 | 1006.4 |
| 20260505173330 | 62 | 45 | 0.0 | 0.0 | 0.00 | 0.00 | 0.09 | 80 | 1006.5 |
| 20260505172829 | 62 | 45 | 0.0 | 0.0 | 0.00 | 0.00 | 0.09 | 80 | 1006.4 |
| 20260505172329 | 62 | 45 | 0.0 | 0.0 | 0.00 | 0.00 | 0.09 | 80 | 1006.4 |
| 20260505171828 | 62 | 45 | 0.0 | 0.0 | 0.00 | 0.00 | 0.09 | 80 | 1006.4 |
| 20260505171327 | 62 | 45 | 0.0 | 0.0 | 0.00 | 0.00 | 0.09 | 79 | 1006.4 |
| 20260505170826 | 62 | 45 | 0.0 | 0.0 | 0.00 | 0.00 | 0.09 | 79 | 1006.3 |
| 20260505170325 | 62 | 45 | 0.0 | 0.0 | 0.00 | 0.00 | 0.09 | 79 | 1006.4 |
| 20260505165824 | 62 | 45 | 0.0 | 0.0 | 0.00 | 0.00 | 0.09 | 79 | 1006.4 |
| 20260505165323 | 62 | 45 | 0.0 | 0.0 | 0.00 | 0.00 | 0.09 | 79 | 1006.3 |
| 20260505164822 | 62 | 45 | 0.0 | 0.0 | 0.00 | 0.00 | 0.09 | 78 | 1006.3 |
| 20260505163805 | 62 | 45 | 0.0 | 0.0 | 0.00 | 0.00 | 0.09 | 78 | 1006.4 |
| 20260505163305 | 62 | 45 | 0.0 | 0.0 | 0.00 | 0.00 | 0.09 | 78 | 1006.4 |
| 20260505162804 | 62 | 45 | 0.0 | 0.0 | 0.00 | 0.00 | 0.09 | 78 | 1006.5 |
| 20260505162306 | 62 | 45 | 0.0 | 0.0 | 0.00 | 0.00 | 0.09 | 78 | 1006.7 |
| 20260505161802 | 62 | 45 | 0.0 | 0.0 | 0.00 | 0.00 | 0.09 | 78 | 1006.6 |
| 20260505161301 | 62 | 45 | 2.0 | 0.0 | 0.00 | 0.00 | 0.09 | 78 | 1006.6 |
| 20260505160801 | 62 | 45 | 0.0 | 0.0 | 0.00 | 0.00 | 0.09 | 78 | 1006.6 |
| 20260505160204 | 62 | 45 | 0.0 | 0.0 | 0.00 | 0.00 | 0.09 | 78 | 1006.6 |
| 20260505153141 | 63 | 45 | 2.0 | 0.0 | 0.00 | 0.00 | 0.09 | 77 | 1006.9 |
| 20260505152640 | 63 | 45 | 0.0 | 0.0 | 0.00 | 0.00 | 0.09 | 77 | 1007.0 |
| 20260505152139 | 63 | 45 | 2.0 | 0.0 | 0.00 | 0.00 | 0.09 | 76 | 1007.3 |
| 20260505151638 | 63 | 45 | 0.0 | 0.0 | 0.00 | 0.00 | 0.09 | 76 | 1007.3 |
| 20260505151137 | 64 | 45 | 0.0 | 0.0 | 0.00 | 0.00 | 0.09 | 73 | 1007.9 |
| 20260505150637 | 66 | 45 | 0.0 | 0.0 | 0.00 | 0.00 | 0.02 | 67 | 1006.8 |